EW6135 Weather Reports


Display with metric or nautical units.
time (UTC)temp
F
wind
direction
speed
MPH
gust
MPH
rain 1hr
in
rain 24hr
in
rain mn
in
humidity
%
barometer
mb
20260504043537 44 16 0.0 0.0 0.00 0.02 0.00 97 1018.7
20260504043034 43 16 0.0 0.0 0.00 0.02 0.00 97 1018.7
20260504042536 44 16 0.0 0.0 0.00 0.02 0.00 97 1018.8
20260504042032 44 16 0.0 0.0 0.00 0.02 0.00 97 1018.8
20260504041535 44 16 0.0 0.0 0.00 0.02 0.00 97 1018.8
20260504041032 44 16 0.0 0.0 0.00 0.02 0.00 97 1018.8
20260504040532 44 16 0.0 0.0 0.00 0.02 0.00 97 1018.8
20260504040031 44 15 0.0 0.0 0.00 0.02 0.00 97 1018.8
20260504035530 44 16 0.0 0.0 0.00 0.02 0.02 97 1018.8
20260504035032 44 16 0.0 0.0 0.00 0.02 0.02 97 1018.8
20260504034529 45 15 0.0 0.0 0.00 0.02 0.02 97 1018.7
20260504034032 45 16 0.0 0.0 0.00 0.02 0.02 97 1018.7
20260504033529 45 16 0.0 0.0 0.00 0.02 0.02 97 1018.7
20260504033029 45 16 0.0 0.0 0.00 0.02 0.02 96 1018.7
20260504032529 45 16 0.0 0.0 0.00 0.02 0.02 97 1018.8
20260504032029 45 16 0.0 0.0 0.00 0.02 0.02 97 1018.7
20260504031529 45 16 0.0 0.0 0.00 0.02 0.02 97 1018.8
20260504031029 44 16 0.0 0.0 0.00 0.02 0.02 96 1018.7
20260504030527 45 16 0.0 0.0 0.00 0.02 0.02 96 1018.7
20260504030027 45 16 0.0 0.0 0.00 0.02 0.02 96 1018.7
20260504025527 45 16 0.0 0.0 0.00 0.02 0.02 96 1018.7
20260504025027 46 16 0.0 0.0 0.00 0.02 0.02 96 1018.7
20260504024527 46 16 0.0 0.0 0.00 0.02 0.02 96 1018.7
20260504024027 46 16 0.0 0.0 0.00 0.02 0.02 96 1018.6
20260504023526 46 16 0.0 0.0 0.00 0.02 0.02 96 1018.6
20260504023027 46 16 0.0 0.0 0.00 0.02 0.02 95 1018.5
20260504022528 46 16 0.0 0.0 0.00 0.02 0.02 95 1018.6
20260504022026 46 16 0.0 0.0 0.00 0.02 0.02 95 1018.6
20260504021525 47 16 0.0 0.0 0.00 0.02 0.02 95 1018.5
20260504021025 47 16 0.0 0.0 0.00 0.02 0.02 95 1018.5
20260504020526 47 16 0.0 0.0 0.00 0.02 0.02 95 1018.5
20260504020026 47 16 0.0 0.0 0.00 0.02 0.02 95 1018.5
20260504015526 47 16 0.0 0.0 0.00 0.02 0.02 95 1018.4
20260504015026 47 16 0.0 0.0 0.00 0.02 0.02 95 1018.3
20260504014528 47 16 0.0 0.0 0.00 0.02 0.02 95 1018.3
20260504014026 47 16 0.0 0.0 0.00 0.02 0.02 95 1018.2
20260504013526 47 16 0.0 0.0 0.00 0.02 0.02 94 1018.1
20260504013026 47 16 0.0 0.0 0.00 0.02 0.02 93 1018.0
20260504012526 47 16 0.0 0.0 0.00 0.02 0.02 93 1017.9
20260504012029 47 16 0.0 0.0 0.00 0.02 0.02 93 1017.8
20260504011526 48 16 0.0 0.0 0.00 0.02 0.02 93 1017.7
20260504011025 48 16 0.0 0.0 0.00 0.02 0.02 92 1017.6
20260504010525 48 16 0.0 0.0 0.00 0.02 0.02 91 1017.6
20260504010025 48 15 0.0 0.0 0.00 0.02 0.02 91 1017.6
20260504005525 48 16 0.0 0.0 0.00 0.03 0.02 90 1017.5
20260504005025 48 16 0.0 0.0 0.00 0.03 0.02 90 1017.4
20260504004525 49 16 0.0 0.0 0.00 0.03 0.02 90 1017.3
20260504004024 49 16 0.0 0.0 0.00 0.03 0.02 89 1017.3
20260504003524 49 16 0.0 0.0 0.00 0.03 0.02 88 1017.2
20260504003029 49 16 0.0 0.0 0.00 0.03 0.02 87 1017.1
20260504002525 50 16 0.0 0.0 0.00 0.03 0.02 86 1017.1
20260504002025 50 16 0.0 0.0 0.00 0.03 0.02 86 1017.0
20260504001526 51 16 0.0 0.0 0.00 0.03 0.02 85 1016.9
20260504001025 52 16 0.0 0.0 0.00 0.03 0.02 81 1016.9
20260504000524 52 15 0.0 0.0 0.00 0.03 0.02 81 1016.9
20260504000023 52 16 0.0 0.0 0.00 0.03 0.02 80 1016.8
20260503235527 53 16 0.0 0.0 0.00 0.05 0.02 79 1016.8
20260503235023 54 16 0.0 0.0 0.00 0.05 0.02 79 1016.8
20260503234525 54 16 0.0 0.0 0.00 0.05 0.02 78 1016.7
20260503234023 55 16 0.0 0.0 0.00 0.05 0.02 78 1016.8
20260503233524 56 16 0.0 0.0 0.00 0.05 0.02 77 1016.6
20260503233034 57 16 0.0 0.0 0.00 0.05 0.02 75 1016.6
20260503232523 58 16 0.0 0.0 0.00 0.05 0.02 73 1016.7
20260503232022 59 15 0.0 0.0 0.00 0.05 0.02 71 1016.7
20260503231523 60 16 0.0 0.0 0.00 0.05 0.02 70 1016.6
20260503231025 63 16 0.0 0.0 0.00 0.05 0.02 63 1016.6
20260503230528 63 16 0.0 0.0 0.00 0.05 0.02 63 1016.6
20260503230024 64 16 0.0 1.0 0.00 0.05 0.02 60 1016.5
20260503225523 64 15 0.0 0.0 0.00 0.09 0.02 59 1016.6
20260503225024 64 16 0.0 1.0 0.00 0.09 0.02 56 1016.6
20260503224524 65 16 0.0 1.0 0.00 0.09 0.02 48 1016.5
20260503224024 64 16 0.0 3.0 0.00 0.09 0.02 46 1016.5
20260503223525 64 16 0.0 4.0 0.00 0.09 0.02 46 1016.4
20260503223022 65 330 0.0 2.0 0.00 0.09 0.02 50 1016.4
20260503222523 65 330 0.0 3.0 0.00 0.09 0.02 46 1016.4
20260503222022 65 323 0.0 4.0 0.00 0.09 0.02 47 1016.4
20260503221527 65 67 1.0 4.0 0.00 0.09 0.02 46 1016.4
20260503221022 65 68 0.0 5.0 0.00 0.09 0.02 47 1016.3
20260503220520 65 68 0.0 5.0 0.00 0.09 0.02 47 1016.3
20260503220019 65 70 2.0 5.0 0.00 0.09 0.02 44 1016.3
20260503215519 66 356 0.0 3.0 0.00 0.12 0.02 42 1016.4
20260503215021 66 229 0.0 3.0 0.00 0.12 0.02 43 1016.3
20260503214519 65 15 1.0 7.0 0.00 0.12 0.02 43 1016.2
20260503214019 65 43 2.0 11.0 0.00 0.12 0.02 44 1016.2
20260503213519 65 20 4.0 11.0 0.00 0.12 0.02 44 1016.2
20260503213022 65 44 3.0 11.0 0.00 0.12 0.02 47 1016.1
20260503212519 66 337 0.0 5.0 0.00 0.12 0.02 42 1016.2
20260503212018 66 16 2.0 6.0 0.00 0.12 0.02 43 1016.2
20260503211518 66 248 1.0 6.0 0.00 0.12 0.02 42 1016.2
20260503211020 65 77 3.0 8.0 0.00 0.12 0.02 44 1016.3
20260503210521 65 77 4.0 8.0 0.00 0.12 0.02 41 1016.3
20260503210018 66 25 1.0 5.0 0.00 0.12 0.02 43 1016.4
20260503205517 66 254 0.0 7.0 0.00 0.15 0.02 44 1016.5
20260503205017 66 283 1.0 7.0 0.00 0.15 0.02 47 1016.5
20260503204520 66 27 2.0 7.0 0.00 0.15 0.02 44 1016.5
20260503204017 66 350 1.0 5.0 0.00 0.15 0.02 45 1016.5
20260503203516 65 38 2.0 11.0 0.00 0.15 0.02 41 1016.4
20260503203017 65 23 3.0 11.0 0.00 0.15 0.02 44 1016.4
20260503202516 65 26 1.0 8.0 0.00 0.15 0.02 44 1016.5
20260503202016 65 130 3.0 9.0 0.00 0.15 0.02 41 1016.5
20260503201516 65 37 3.0 9.0 0.00 0.15 0.02 42 1016.6
20260503201016 66 9 2.0 6.0 0.00 0.15 0.02 43 1016.5
20260503200519 66 7 2.0 6.0 0.00 0.15 0.02 41 1016.5
20260503200014 66 259 2.0 8.0 0.00 0.15 0.02 46 1016.5
20260503195513 66 359 3.0 11.0 0.00 0.25 0.02 43 1016.5
20260503195018 65 186 1.0 11.0 0.00 0.25 0.02 46 1016.5
20260503194513 65 134 3.0 10.0 0.00 0.25 0.02 45 1016.6
20260503194014 65 242 3.0 10.0 0.00 0.25 0.02 44 1016.7
20260503193516 65 240 2.0 10.0 0.00 0.25 0.02 43 1016.7
20260503193012 66 43 1.0 6.0 0.00 0.25 0.02 46 1016.7
20260503192511 65 243 1.0 9.0 0.00 0.25 0.02 47 1016.8
20260503192014 65 237 2.0 9.0 0.00 0.25 0.02 44 1017.0
20260503191510 65 342 2.0 7.0 0.00 0.25 0.02 44 1017.1
20260503191009 64 253 3.0 8.0 0.00 0.25 0.02 44 1017.3
20260503190510 65 238 2.0 8.0 0.00 0.25 0.02 44 1017.3
20260503190010 64 256 3.0 9.0 0.00 0.25 0.02 47 1017.3
20260503185509 64 347 4.0 9.0 0.00 0.30 0.02 45 1017.3
20260503185009 65 39 0.0 7.0 0.00 0.30 0.02 47 1017.4
20260503184514 65 264 2.0 9.0 0.00 0.30 0.02 47 1017.5
20260503184009 64 236 2.0 9.0 0.00 0.30 0.02 46 1017.4
20260503183506 63 64 2.0 9.0 0.00 0.30 0.02 49 1017.5
20260503183006 64 60 1.0 11.0 0.00 0.30 0.02 48 1017.6
20260503182507 63 47 5.0 11.0 0.00 0.30 0.02 44 1017.6
20260503182006 63 25 3.0 11.0 0.00 0.30 0.02 48 1017.6
20260503181506 63 293 4.0 11.0 0.00 0.30 0.02 47 1017.6
20260503181005 64 349 2.0 12.0 0.00 0.30 0.02 46 1017.7
20260503180505 64 274 2.0 12.0 0.00 0.30 0.02 45 1017.7
20260503180005 63 113 3.0 12.0 0.00 0.36 0.02 46 1017.7
20260503175504 63 77 3.0 11.0 0.00 0.36 0.02 45 1017.7
20260503175003 63 316 2.0 11.0 0.00 0.36 0.02 49 1017.7
20260503174503 63 238 5.0 12.0 0.00 0.36 0.02 46 1017.7
20260503174002 63 346 4.0 11.0 0.00 0.36 0.02 44 1017.9
20260503173502 63 283 3.0 13.0 0.00 0.36 0.02 48 1017.8
20260503173001 63 22 6.0 13.0 0.00 0.36 0.02 45 1017.8
20260503172500 63 232 3.0 9.0 0.00 0.36 0.02 52 1017.8
20260503172059 63 342 1.0 11.0 0.00 0.36 0.02 51 1017.9
20260503171600 62 231 3.0 11.0 0.00 0.36 0.02 48 1017.9
20260503171058 61 355 5.0 10.0 0.00 0.36 0.02 53 1017.9
20260503131030 53 56 1.0 14.0 0.01 0.44 0.02 80 1017.5
20260503081553 46 261 0.0 2.0 0.00 0.48 0.00 98 1014.4
20260503081053 46 261 0.0 2.0 0.00 0.48 0.00 98 1014.4
20260503072551 47 261 0.0 1.0 0.00 0.49 0.00 98 1014.0
20260503072048 47 261 0.0 1.0 0.00 0.49 0.00 98 1014.0
20260503071604 47 261 0.0 1.0 0.00 0.49 0.00 98 1013.9
20260503071046 47 261 0.0 1.0 0.00 0.49 0.00 97 1013.9
20260503055034 50 233 0.0 2.0 0.00 0.49 0.00 97 1012.8
20260503054548 50 331 0.0 2.0 0.00 0.49 0.00 97 1012.8
20260503054033 51 335 0.0 3.0 0.00 0.49 0.00 97 1012.8
20260503053533 51 230 0.0 3.0 0.00 0.49 0.00 97 1012.8
20260503053034 51 334 0.0 3.0 0.00 0.49 0.00 97 1012.8
20260503052536 51 27 0.0 3.0 0.00 0.49 0.00 97 1012.8
20260503052032 51 260 0.0 2.0 0.00 0.49 0.00 97 1012.9
20260503051535 51 260 0.0 2.0 0.00 0.49 0.00 98 1012.8
20260503051032 51 48 0.0 2.0 0.00 0.49 0.00 98 1012.8
20260503050038 51 94 0.0 2.0 0.00 0.49 0.00 98 1013.0
20260503045534 51 114 0.0 0.0 0.00 0.49 0.00 98 1012.9
20260503045032 51 114 0.0 0.0 0.00 0.49 0.00 98 1012.9
20260503044532 51 114 0.0 2.0 0.00 0.49 0.00 98 1012.9
20260503044030 51 114 0.0 2.0 0.00 0.49 0.00 98 1012.8